Regional Weather Roundup
Issued by NWS State College, PA

Home | Current Version | Previous Version | Text Only | Print | Product List | Glossary On
Versions: 1 2 3 4 5 6 7 8 9 10 11 12 13 14 15 16 17 18 19 20 21 22 23 24 25 26 27 28 29 30 31 32 33 34 35 36 37 38 39 40 41 42 43 44 45 46 47 48 49 50
000
ASUS41 KCTP 250010
RWRCTP

REGIONAL WEATHER ROUNDUP
NATIONAL WEATHER SERVICE STATE COLLEGE PA
700 PM EST SAT FEB 24 2018

Note: "fair" indicates few or no clouds below 12,000 feet with no
significant weather and/or obstructions to visibility.

* = STATION THAT DOES NOT REPORT PRECIPITATION /E.G. RAIN...SNOW...ETC/
    THUNDER OR FOG.

PAZ002>004-007>009-013>016-020>023-029>032-250100-
WESTERN PENNSYLVANIA

CITY           SKY/WX    TMP DP  RH WIND       PRES   REMARKS
ERIE           MOCLDY    36  30  79 NE10      30.10F
MEADVILLE      CLOUDY    41  40  96 NE5       30.05F
FRANKLIN*      CLOUDY    43  40  89 SE8       30.06F
NEW CASTLE     CLOUDY    46  44  93 E7        30.05F
BEAVER COUNTY  NOT AVBL
BUTLER*        CLOUDY    45  42  89 E10       30.06S
PITTSBURGH INT CLOUDY    47  45  93 NE8       30.04S
PITTSBURGH     CLOUDY    47  44  90 VRB6      30.03S
INDIANA*       CLOUDY    46  43  87 E8        30.12R
LATROBE        CLOUDY    48  45  87 SE7       30.05R
WASHINGTON CO* CLOUDY    48  46  93 NE10      30.04S
$$

PAZ004>006-010>012-017>019-024>028-033>037-041-042-045-046-049>053-250100-
CENTRAL PENNSYLVANIA

CITY           SKY/WX    TMP DP  RH WIND       PRES   REMARKS
BRADFORD       CLOUDY    41  39  93 E5        30.10R
DUBOIS         CLOUDY    42  38  85 SE9       30.09F
CLEARFIELD     CLOUDY    43  41  93 E6        30.13R
JOHNSTOWN      CLOUDY    43  40  89 SE9       30.07R
ALTOONA        LGT RAIN  44  42  93 SE6       30.12S
STATE COLLEGE  NOT AVBL
WILLIAMSPORT   CLOUDY    44  43  96 NW6       30.17R
SELINSGROVE    CLOUDY    44  42  93 NW3       30.17R
FT INDIANTOWN  CLOUDY    45 N/A N/A CALM      30.17F
CAPITAL CITY   CLOUDY    47  46  97 E3        30.17F
HARRISBURG     CLOUDY    47  45  93 NE3       30.17S
YORK           CLOUDY    46  46 100 NE3       30.16R FOG
$$

PAZ038>040-043-044-047-048-054-055-060>062-067>071-250100-
EASTERN PENNSYLVANIA

CITY           SKY/WX    TMP DP  RH WIND       PRES   REMARKS
SCRANTON       LGT RAIN  41  40  96 N8        30.16R FOG
MOUNT POCONO   LGT RAIN  38  38 100 SE6       30.12R FOG
ALLENTOWN      LGT RAIN  47  43  86 CALM      30.19R FOG
QUAKERTOWN*    CLOUDY    45  45 100 CALM      30.19R
READING        CLOUDY    45  45 100 CALM      30.17R FOG
LANCASTER      CLOUDY    46  44  93 NE6       30.17S
COATESVILLE    CLOUDY    46  45  93 NE5       30.18R
POTTSTOWN      CLOUDY    46  45  96 N5        30.20R FOG
BLUE BELL      CLOUDY    45  45 100 CALM      30.20R
DOYLESTOWN     CLOUDY    46  44  93 N3        30.18R
WILLOW GROVE   NOT AVBL
NORTH PHILA    CLOUDY    50  45  83 NE7       30.19S
PHILADELPHIA   CLOUDY    48  45  89 NE9       30.17F
$$




USA.gov is the U.S. government's official web portal to all federal, state and local government web resources and services.